Wind_Speed
46 45 45 45 45 46 51 54 53 53 52 50 50 49 45 43 41 37 34 34 35 35 35 36 38 41 45 47 44 38 38 44 44 45 51 50 39 33 37 40 39 31 28 30 33 33 30 28 24 22 22 23 26 27 27 24 23 23 18 15 13 11 11 10 10 11 10 11 12 13 13 12 11 11 11 11 10 10 10 10 10 10 11 11 10 11 12 12
45 44 44 44 44 46 52 54 53 54 53 51 51 49 46 44 42 39 35 33 35 35 34 34 34 38 42 44 46 42 38 41 42 44 47 44 37 36 38 42 41 32 28 31 31 31 30 27 24 23 24 24 27 28 28 24 24 23 17 14 13 11 13 12 12 14 11 10 12 13 13 13 12 12 11 11 10 10 9 10 10 10 11 11 11 11 11 12
45 45 44 44 43 46 52 54 54 53 52 52 52 50 48 46 44 41 37 35 35 34 32 32 32 36 39 40 42 44 42 41 42 44 43 38 36 39 39 43 44 32 28 30 30 31 29 27 25 24 26 26 28 29 28 25 24 24 19 14 12 12 16 15 13 13 11 10 13 13 13 13 13 13 12 11 11 10 10 10 10 10 11 12 12 12 12 12
45 44 43 44 44 46 52 53 53 53 53 53 53 51 49 48 45 43 40 38 37 36 34 31 29 31 37 39 37 40 44 45 45 41 39 35 34 39 39 43 43 30 27 31 32 32 30 30 28 27 27 27 30 31 29 27 24 23 21 16 13 14 16 15 12 11 10 10 12 13 13 13 12 12 12 12 10 8 10 11 12 12 13 13 13 12 13 13
45 43 41 43 44 47 52 53 53 54 53 54 54 53 51 50 47 44 43 41 40 39 37 34 28 25 29 31 28 29 36 44 44 38 38 36 35 38 39 45 41 26 27 32 32 33 32 32 30 28 29 28 31 31 29 28 25 22 21 17 14 15 16 15 13 11 10 9 10 12 12 12 13 13 13 12 8 8 13 14 14 14 14 14 14 14 14 14
46 43 41 43 44 47 51 53 54 54 54 55 56 54 52 51 48 46 45 43 42 42 40 37 32 27 23 20 17 18 24 32 34 33 37 37 38 38 40 47 37 24 30 33 33 35 33 33 30 30 30 27 30 31 29 29 26 20 21 21 16 16 16 16 14 12 10 9 9 10 10 11 12 13 13 13 13 13 16 14 14 14 13 14 14 14 14 14
46 44 41 43 44 48 51 53 54 54 54 56 56 55 53 52 49 47 46 44 43 42 41 39 36 30 25 20 17 15 18 20 19 26 36 36 36 37 41 46 32 25 33 34 35 35 34 34 32 31 29 24 28 30 27 28 26 18 19 22 18 16 16 15 14 12 10 10 10 10 10 10 11 12 12 14 17 16 14 14 15 13 13 14 14 14 14 15
47 44 42 43 45 48 51 53 55 55 55 56 57 56 55 53 51 48 46 45 43 42 42 43 40 33 29 24 22 19 14 12 12 22 37 34 30 32 40 42 30 28 34 35 35 35 34 34 32 31 28 25 27 28 26 27 26 19 18 22 19 16 16 16 14 13 11 10 10 10 10 10 10 11 12 14 15 13 12 14 14 13 13 14 13 14 14 15
46 43 42 43 46 49 51 53 55 55 55 56 57 57 55 53 52 49 48 46 44 44 45 47 44 37 31 26 29 24 11 9 14 21 35 30 24 26 34 35 27 29 34 35 35 33 34 34 33 30 27 27 30 30 30 27 24 23 21 20 19 17 17 16 14 13 12 11 10 10 10 10 10 10 11 13 12 10 11 12 12 13 13 14 15 15 15 16
45 43 43 43 46 49 51 53 54 55 55 56 57 58 56 54 53 50 49 47 47 47 46 45 41 36 34 32 34 25 11 11 16 21 32 27 22 23 27 29 25 29 34 34 34 34 35 33 33 32 27 28 32 32 31 26 21 25 25 20 19 17 17 16 14 14 12 12 11 11 10 10 11 11 11 11 10 10 10 11 12 12 13 15 16 16 16 17
44 43 43 44 47 49 50 53 54 55 54 54 57 58 57 55 53 51 50 49 49 47 43 38 33 32 36 35 31 21 13 14 16 21 29 22 22 24 25 24 23 28 33 33 33 34 34 33 33 32 27 29 33 31 31 28 20 24 26 21 20 18 17 17 15 14 13 13 12 11 11 12 13 12 12 11 10 10 10 11 12 12 13 15 16 16 16 17
43 43 43 44 47 48 50 52 53 54 53 53 56 57 57 55 53 52 50 49 48 44 40 35 29 28 34 31 23 19 16 16 16 21 24 17 21 26 24 20 22 26 30 30 31 32 33 33 33 30 25 28 32 28 29 30 22 22 25 22 20 19 18 18 16 15 14 13 12 11 11 13 15 13 11 11 11 11 11 12 13 13 14 15 16 16 16 16
43 42 42 44 46 48 50 52 53 54 53 53 54 56 57 55 53 53 51 49 44 40 37 34 27 27 30 26 21 21 18 18 19 19 17 17 23 29 24 20 23 25 28 30 30 32 32 31 32 31 25 26 30 27 27 30 23 21 24 22 20 19 19 19 18 17 15 14 13 11 10 10 11 13 12 12 12 12 11 12 13 14 15 15 16 15 15 15
41 41 42 45 46 47 50 52 53 54 53 52 53 56 56 55 54 53 51 47 42 38 34 29 26 29 29 24 22 24 21 21 23 21 18 20 25 26 22 21 24 25 28 31 31 31 31 30 32 32 27 26 31 28 25 29 25 20 23 23 20 17 18 21 21 19 18 17 16 13 12 8 8 12 13 13 13 12 12 12 13 14 15 16 16 15 15 15
40 41 43 46 47 48 50 52 52 51 51 51 53 55 55 55 54 52 50 46 42 39 33 27 28 30 28 26 26 26 24 24 24 22 22 23 23 23 21 22 24 25 28 31 31 31 31 31 32 33 29 27 30 28 24 28 26 23 23 20 19 18 15 20 22 21 20 19 18 16 13 9 12 16 13 12 14 13 12 12 13 14 15 16 16 16 15 15
40 41 45 48 48 49 50 50 50 49 49 51 52 54 55 56 54 51 49 46 43 40 34 30 31 30 27 28 29 28 28 28 25 23 24 24 23 22 22 24 25 26 28 29 30 31 30 30 31 33 31 26 28 28 26 27 25 26 26 18 22 24 15 17 22 23 22 20 19 19 14 8 12 18 15 13 14 13 13 13 13 14 16 17 17 17 17 16
42 44 47 48 48 48 48 48 49 49 49 49 51 54 55 55 53 51 48 46 43 39 35 32 31 30 28 30 32 31 30 30 26 25 26 25 25 25 25 27 27 27 27 28 29 30 30 31 32 34 32 25 26 28 26 26 24 27 27 16 19 26 17 14 20 23 23 22 21 22 20 15 15 19 14 13 15 15 15 14 14 16 16 17 17 17 17 17
43 45 47 47 48 47 48 49 49 48 47 48 50 53 54 54 52 49 47 45 40 36 34 33 32 32 32 34 35 31 30 30 26 26 28 27 27 28 28 28 27 27 27 27 29 29 29 31 31 32 32 27 26 30 29 26 25 28 29 20 18 24 21 16 19 24 24 24 24 23 24 22 20 22 17 14 15 16 17 16 16 16 17 17 17 17 17 17
43 46 47 47 47 47 49 49 47 46 46 47 49 50 51 50 47 45 44 43 42 41 41 41 43 40 35 36 37 31 30 30 26 26 27 26 28 29 29 28 26 27 28 28 29 30 31 31 30 31 35 32 29 31 28 22 23 30 33 30 29 28 27 26 26 27 25 23 23 23 24 23 21 23 22 18 17 17 18 18 17 17 17 17 17 17 18 18
44 46 48 48 48 48 49 47 46 46 46 47 50 51 52 51 48 47 46 46 47 48 48 47 47 41 30 30 35 32 31 32 28 28 26 25 27 29 30 28 25 26 29 29 30 31 31 31 33 34 35 36 32 27 25 19 19 28 32 33 35 30 26 30 31 28 24 21 21 23 24 24 22 22 22 20 20 20 19 18 18 17 17 17 17 17 18 19
46 48 49 49 48 48 48 47 46 45 46 48 51 53 54 55 56 56 55 53 51 49 48 44 42 39 27 25 32 33 32 33 30 28 26 25 28 30 31 29 26 28 29 28 30 32 31 30 32 33 28 30 31 28 26 23 19 26 31 31 31 27 21 25 29 25 24 23 21 24 26 25 24 22 20 21 23 23 21 20 19 18 18 17 17 18 19 20
47 49 50 49 48 48 47 46 46 47 48 49 52 53 54 56 58 58 58 57 52 49 47 42 40 39 29 24 31 34 33 34 31 29 27 26 29 31 31 31 29 29 29 27 29 33 32 28 27 28 25 26 31 32 29 26 22 24 29 28 24 25 24 23 26 24 23 23 21 25 28 26 25 23 21 22 24 24 22 21 20 19 20 19 18 19 20 21
49 50 49 48 48 47 46 47 47 49 50 51 53 54 54 56 54 51 52 52 49 46 43 40 39 39 30 24 31 36 34 34 33 29 27 27 30 31 31 33 30 28 29 30 30 30 28 25 24 26 28 28 31 32 31 28 25 24 25 25 21 24 25 19 21 25 23 22 21 25 27 26 26 24 23 23 24 24 23 22 21 21 21 20 20 20 20 21
50 50 49 48 47 46 46 48 49 50 51 52 54 53 54 55 50 47 48 47 45 44 40 36 37 37 30 23 27 34 34 34 33 30 28 28 31 32 31 33 30 27 31 31 28 26 23 22 23 26 28 29 28 29 31 28 23 24 25 23 20 22 24 19 18 22 22 21 22 22 21 24 28 25 24 24 24 25 24 23 23 23 23 22 21 21 21 22
50 50 50 48 47 47 48 49 50 51 52 52 53 52 52 51 47 46 48 43 39 40 38 33 34 34 28 22 25 32 33 32 32 31 29 29 31 33 31 32 29 28 32 31 25 23 23 22 24 27 28 28 26 25 29 24 18 22 25 22 21 21 23 22 19 16 16 18 22 19 12 14 20 22 24 25 25 24 24 25 24 23 23 23 23 23 23 23
50 50 50 49 49 49 50 51 51 52 51 51 52 51 51 50 45 45 44 34 30 36 35 31 33 34 28 21 24 30 30 30 31 30 30 31 32 33 32 32 30 28 31 31 24 21 24 26 27 28 28 29 27 24 27 25 15 16 23 23 21 21 20 21 19 13 10 11 16 17 13 8 8 12 18 22 24 25 25 25 25 25 24 24 24 24 24 24
51 51 50 50 50 51 52 52 52 52 52 51 51 50 51 48 43 44 36 17 18 32 34 31 34 35 29 21 24 30 28 30 31 29 30 31 33 33 33 34 32 29 30 31 26 24 27 29 28 27 28 29 28 24 26 26 15 11 18 21 19 20 19 17 17 13 9 9 10 13 16 12 9 10 14 17 18 21 24 25 26 25 25 24 24 24 24 24
51 51 52 51 51 51 51 51 52 53 52 52 51 49 50 45 41 43 27 6 13 30 34 33 34 35 31 22 25 31 29 30 33 31 30 31 33 34 31 32 33 32 31 31 27 26 29 30 28 27 27 28 28 25 25 25 18 12 14 19 20 19 18 14 13 13 12 9 8 12 14 10 11 15 18 19 18 19 21 22 24 24 25 25 24 24 24 24
52 52 52 52 53 52 51 50 50 51 51 52 51 49 49 41 39 37 16 3 17 29 33 34 33 35 32 24 27 33 30 30 33 31 30 31 33 33 30 31 33 32 31 31 27 24 27 29 26 24 25 27 28 27 26 25 22 18 14 15 17 16 15 13 11 12 11 8 8 13 15 9 9 14 17 19 20 21 22 21 21 22 23 24 24 25 25 25
52 53 53 54 54 53 52 49 48 48 51 52 49 49 44 37 38 29 7 8 22 28 33 35 34 36 35 28 29 33 31 29 33 33 31 32 33 33 31 30 30 29 29 30 26 22 24 27 26 24 24 26 27 26 26 25 24 22 16 14 14 13 13 13 11 10 7 7 10 13 15 11 7 8 13 18 21 21 24 23 22 21 22 22 22 23 24 24
52 54 54 55 54 52 51 48 48 49 51 51 48 46 41 34 34 20 5 16 26 28 35 36 35 38 37 33 32 35 33 30 33 35 34 34 34 34 31 28 28 26 25 29 27 21 20 23 26 27 26 26 27 26 25 24 24 21 16 16 15 11 10 9 9 10 6 5 10 15 16 13 11 8 9 14 19 20 22 23 22 23 23 22 22 22 22 23
52 53 54 54 52 51 49 46 49 51 52 52 47 46 41 30 25 16 11 20 23 29 40 40 39 40 39 35 32 36 35 30 33 35 35 37 36 37 34 30 31 26 21 25 27 21 19 22 26 26 26 26 26 25 23 22 23 20 19 19 15 9 8 7 6 7 7 4 7 13 13 13 18 20 14 12 13 15 19 22 22 23 23 23 23 22 22 23
52 52 53 53 51 49 46 45 49 51 52 52 46 47 39 21 17 21 23 24 21 33 45 42 42 42 39 37 33 36 35 31 33 34 35 38 37 38 36 32 35 29 19 21 24 18 13 17 23 25 24 24 24 24 24 24 24 21 20 21 15 8 5 6 6 5 5 4 6 10 9 10 17 21 21 21 20 18 19 19 21 23 23 23 24 23 23 23
50 52 52 52 50 47 46 47 49 51 53 50 47 46 34 17 20 25 28 27 22 34 45 42 42 40 38 38 35 36 35 30 33 35 35 38 36 38 37 34 36 31 21 22 25 21 12 11 19 23 22 22 23 24 24 26 26 23 22 21 18 12 7 5 5 4 2 4 7 9 7 7 8 9 14 20 24 24 22 20 20 21 22 23 23 23 23 23
49 49 50 51 51 49 49 49 50 51 52 51 48 44 31 23 28 30 34 35 28 35 44 41 42 40 37 38 35 34 34 31 33 35 35 38 38 38 39 36 37 34 26 23 24 24 17 13 20 25 23 22 24 24 25 25 25 25 25 24 20 14 9 4 2 3 4 4 5 10 10 11 11 9 11 15 20 23 24 23 21 21 21 21 20 20 20 20
48 48 48 50 51 51 51 50 51 51 52 52 49 44 38 32 31 32 38 42 36 40 45 40 39 40 36 37 36 35 36 32 32 34 34 37 37 37 39 38 38 38 32 24 21 22 17 11 18 27 26 25 27 26 28 26 23 26 29 28 25 20 14 7 1 2 4 2 5 9 11 15 15 13 13 15 18 22 24 25 23 22 21 21 20 20 18 17
48 48 49 50 51 52 52 51 52 52 52 53 51 50 48 37 31 35 39 41 38 40 46 42 38 41 39 38 38 38 37 33 31 34 35 35 33 37 41 38 37 39 35 28 25 26 23 13 15 25 27 26 28 28 29 29 25 25 29 31 28 22 17 12 4 2 4 4 4 9 11 12 11 10 13 18 19 20 23 24 23 23 21 20 20 19 18 16
47 48 48 50 52 53 53 51 52 53 52 54 54 51 47 36 32 37 40 42 38 37 45 45 39 42 43 41 42 41 39 35 34 35 35 34 30 35 42 39 36 38 36 33 28 27 27 17 13 24 28 25 27 27 27 29 28 25 26 30 25 14 12 14 8 2 5 5 3 7 11 13 15 13 12 17 19 18 18 19 20 21 20 19 19 19 19 18
46 47 48 49 52 54 54 52 53 53 53 57 56 47 43 40 37 36 38 41 39 36 43 45 42 43 42 42 43 43 40 38 38 36 33 32 29 30 40 41 38 37 37 35 31 27 27 18 11 21 29 26 26 28 29 30 31 26 23 26 25 16 10 13 13 8 5 5 5 5 5 11 21 22 17 17 17 16 17 18 18 18 18 19 20 21 21 20
47 48 48 50 52 53 54 53 54 55 55 60 59 48 44 45 41 37 35 39 40 37 39 43 45 44 42 41 41 42 42 39 39 37 32 33 31 28 35 40 39 39 37 36 33 28 27 21 13 18 25 24 24 28 31 32 33 31 27 26 28 25 16 11 15 16 10 5 5 5 4 6 13 16 18 20 19 19 19 19 18 18 19 21 22 23 23 21
47 47 48 51 53 54 55 54 55 58 58 59 58 49 45 45 42 38 35 37 41 39 38 40 44 44 44 43 41 41 42 39 39 38 34 34 34 30 32 37 40 40 38 38 36 29 25 22 18 18 24 25 25 29 30 30 32 33 32 30 30 31 25 11 9 18 19 11 5 4 4 4 4 4 9 15 19 22 22 19 19 19 21 23 24 24 24 23
47 47 48 52 53 55 57 57 57 59 59 59 56 50 46 44 42 40 35 36 40 40 38 37 40 43 44 45 44 41 41 41 41 40 37 36 36 32 29 32 37 39 38 38 38 33 27 22 19 19 23 27 27 28 29 29 31 33 33 32 30 31 30 19 8 12 18 16 10 5 4 8 13 11 10 10 13 17 21 22 21 22 23 24 25 26 26 24
46 46 49 53 54 56 58 58 59 60 60 60 56 49 45 42 42 41 38 36 39 40 39 36 37 40 41 43 45 44 41 40 39 41 40 37 36 34 29 27 30 35 38 37 36 36 30 23 20 17 18 25 27 27 28 29 30 32 33 35 33 32 34 28 14 7 10 15 15 7 4 14 23 21 17 13 12 13 17 22 24 24 25 25 27 28 27 25
45 46 48 52 54 57 60 60 62 63 62 60 55 48 44 41 40 41 40 37 39 40 40 38 37 38 40 40 42 45 44 38 36 40 41 38 37 35 32 28 26 30 37 37 36 36 30 24 22 14 7 11 16 17 21 27 32 34 35 37 36 34 34 31 23 13 8 14 16 10 8 17 22 22 20 16 14 14 16 20 24 25 26 27 29 29 28 27
45 44 46 51 54 58 62 61 63 65 63 60 55 47 44 41 38 40 41 39 39 39 40 40 38 37 38 38 39 42 44 41 37 39 41 39 37 36 35 31 26 26 32 35 36 36 31 29 28 19 10 7 10 13 20 28 34 36 36 38 38 37 35 33 30 20 14 17 19 18 18 20 20 22 20 15 14 15 16 19 23 25 26 29 30 30 30 29
47 46 47 51 54 59 63 62 62 64 64 61 53 45 42 41 39 39 39 39 39 39 39 39 38 37 36 36 37 39 42 43 41 39 41 42 39 36 36 35 30 27 28 31 34 33 31 32 33 30 27 24 23 26 29 31 33 34 34 36 37 38 39 37 30 25 25 25 24 28 31 27 25 25 20 15 14 14 16 20 24 26 27 29 29 30 30 29
48 49 52 56 56 57 63 63 61 62 65 62 55 47 44 42 40 38 37 38 39 39 39 38 38 38 37 37 37 37 39 44 44 40 40 43 44 40 35 35 34 31 29 30 32 32 30 31 32 33 34 33 31 30 30 30 31 31 32 33 35 37 40 40 35 35 35 25 21 33 39 35 35 31 23 20 18 15 17 21 23 25 26 26 26 26 27 28
47 49 54 60 59 61 68 69 63 62 64 60 52 47 46 44 42 40 39 39 38 38 39 38 39 40 39 39 38 37 38 41 44 43 40 41 46 46 41 37 35 34 31 30 31 32 31 31 32 32 33 33 31 29 28 28 29 30 30 32 33 36 39 41 40 41 39 30 29 38 40 38 40 35 30 29 23 17 18 20 21 22 22 23 23 25 26 26
47 48 53 59 60 63 70 70 64 60 58 54 48 45 47 47 46 44 42 41 39 39 39 39 39 40 39 38 37 38 39 40 43 46 45 41 42 45 45 41 38 37 35 33 32 32 31 32 32 32 32 33 33 31 30 29 28 29 31 31 32 34 37 39 39 38 39 41 41 42 41 42 41 35 33 32 26 20 21 21 21 22 24 25 27 27 27 25
47 47 52 57 57 59 62 63 59 50 44 45 47 47 46 47 48 47 44 43 42 41 40 41 40 39 38 37 36 37 38 38 39 43 45 43 40 42 43 43 43 42 39 36 35 34 34 33 32 32 32 32 34 34 33 32 31 31 32 32 32 33 34 37 39 39 42 46 46 45 47 48 43 38 37 35 30 26 25 25 26 27 28 29 29 27 26 25
48 49 52 56 56 55 56 60 59 45 36 43 52 51 46 46 48 49 45 44 44 43 42 43 40 38 38 36 35 35 34 33 33 33 35 37 38 39 40 40 41 42 41 39 37 37 37 34 31 30 29 31 35 35 34 36 34 32 33 33 35 36 37 39 42 42 43 46 45 46 49 46 42 41 41 39 37 32 28 28 28 27 28 30 29 28 28 28
47 50 52 55 56 54 53 58 58 47 43 52 58 54 48 45 47 49 45 43 44 43 42 42 40 38 38 37 36 36 33 31 29 27 26 28 30 34 36 35 35 37 39 40 38 38 39 37 35 32 28 31 35 35 37 35 26 26 36 41 41 43 43 43 44 43 42 43 44 46 47 44 43 44 43 42 40 37 34 32 29 27 29 30 31 32 32 32
Wind_Direction
217 219 221 221 219 212 205 204 202 200 201 199 200 202 199 197 197 195 191 186 186 192 196 200 202 203 205 207 206 204 207 212 210 214 209 200 204 208 203 199 196 203 206 203 203 200 199 198 198 196 193 191 191 189 187 187 187 187 189 197 208 208 205 207 197 190 197 213 202 191 191 190 190 185 182 183 183 188 188 190 188 184 180 175 174 167 163 160
215 217 220 222 219 210 204 204 202 200 200 199 200 200 197 196 196 193 186 183 186 191 196 202 202 200 204 209 211 208 207 208 209 213 206 201 210 211 206 199 198 208 207 202 200 198 198 197 198 195 191 191 191 189 188 189 187 185 189 200 206 200 201 201 193 194 193 200 198 190 191 191 190 187 185 183 186 191 194 199 196 191 188 183 181 173 170 168
214 216 219 221 217 209 204 204 202 200 199 198 200 199 197 196 196 193 185 182 184 187 192 197 200 204 207 208 211 212 209 208 211 210 200 201 211 209 207 200 199 208 205 199 196 195 196 195 196 194 190 190 192 191 188 190 189 187 188 194 204 202 203 203 198 201 199 199 197 192 194 193 194 193 189 189 191 196 199 204 201 196 195 192 190 183 178 175
213 214 217 219 216 207 203 204 201 200 198 197 199 198 196 196 196 193 188 185 184 186 189 191 196 204 210 210 211 213 212 213 215 208 196 198 207 205 205 198 198 205 201 197 195 192 192 190 189 190 188 189 193 192 190 190 189 191 191 196 214 211 205 203 202 206 208 207 199 198 199 196 200 199 197 196 193 203 208 208 203 199 200 199 196 191 186 183
211 212 215 216 214 206 202 203 201 199 198 197 198 197 195 195 196 194 190 189 186 187 189 191 196 199 204 208 214 215 214 218 219 210 196 199 207 204 203 198 195 201 199 196 195 192 192 188 185 188 188 190 192 192 192 191 189 192 193 198 211 208 201 200 202 207 211 212 205 204 201 199 203 200 203 193 176 211 216 209 209 207 206 205 200 198 194 190
210 211 214 216 213 205 202 202 201 200 197 197 198 196 196 195 196 195 193 192 191 191 193 196 202 203 199 198 209 218 215 216 218 212 199 201 209 203 200 198 192 198 201 195 193 191 190 185 185 188 186 189 194 192 194 192 187 191 196 200 206 204 200 197 200 206 210 208 202 202 199 200 201 199 204 190 183 211 215 210 215 214 213 212 207 204 201 198
209 210 211 214 212 205 202 201 201 200 197 197 197 196 196 195 196 196 195 195 195 195 199 202 205 207 205 196 200 221 224 214 214 208 196 198 206 201 198 195 190 199 200 194 191 188 187 185 186 187 182 188 196 194 196 193 187 190 201 204 205 204 200 197 199 204 208 206 200 197 195 194 194 196 200 197 202 214 212 210 217 215 213 214 213 210 208 205
206 208 211 213 211 205 202 201 201 200 197 197 197 196 196 195 196 197 197 198 198 199 203 204 206 208 207 201 203 224 236 227 234 205 191 194 200 200 197 188 188 202 198 193 191 186 187 187 185 184 184 190 192 192 197 194 189 192 201 203 203 203 200 199 199 202 205 206 205 203 199 194 194 196 198 204 213 217 215 215 217 214 210 211 211 210 211 210
205 208 210 212 210 205 202 201 201 200 198 196 196 197 196 196 196 197 198 199 200 204 205 205 207 209 208 205 208 222 234 240 254 210 190 192 196 201 196 184 190 202 193 189 188 186 188 187 184 183 187 194 191 192 193 189 193 198 199 200 202 202 201 200 199 201 206 209 213 211 210 208 202 202 208 213 214 214 218 219 219 215 209 209 210 209 209 210
205 208 211 211 208 204 202 201 201 200 198 196 196 197 196 196 196 197 199 200 202 205 207 208 208 207 206 205 206 212 210 229 252 215 191 189 198 203 190 183 195 200 190 186 185 188 188 185 186 183 186 196 194 194 192 187 199 204 200 200 202 203 202 202 201 202 206 211 219 220 220 221 217 214 218 220 212 208 214 215 218 217 212 210 209 209 210 211
203 208 210 209 205 202 201 200 200 199 198 197 196 196 196 196 196 198 200 202 204 206 209 208 201 198 199 197 203 210 204 227 241 202 185 188 201 194 180 185 199 197 189 186 187 188 187 186 187 183 188 197 194 195 194 190 199 203 201 200 201 204 204 205 205 205 209 212 220 226 230 232 227 222 222 225 219 209 209 212 216 216 215 214 212 212 212 213
201 207 208 206 202 200 199 198 198 197 197 197 195 195 195 195 196 198 201 204 205 206 206 198 192 195 196 192 202 210 201 218 222 187 179 193 198 180 173 192 199 193 190 187 189 188 187 188 184 182 193 198 193 195 196 194 197 199 199 202 203 205 209 211 210 212 214 216 222 228 242 246 235 227 222 225 228 218 211 212 214 214 215 216 216 216 216 217
199 205 205 202 199 198 197 196 195 196 196 196 193 194 194 194 196 198 201 205 205 205 200 190 193 202 200 198 204 206 197 203 208 196 192 196 189 175 174 197 198 192 191 188 188 189 189 188 184 185 193 196 193 195 196 196 197 196 197 200 202 204 212 216 215 219 221 223 229 230 241 251 242 236 225 224 230 225 218 215 215 216 215 217 219 219 219 221
198 202 201 197 195 194 193 192 193 195 195 194 192 193 193 193 195 197 200 204 204 205 200 189 200 207 203 203 203 203 200 200 206 211 211 197 187 181 182 199 198 191 190 188 189 190 191 189 187 188 191 193 194 194 195 195 196 197 199 202 203 203 214 220 218 221 224 227 233 235 237 245 259 251 231 225 233 231 228 223 220 220 218 218 221 221 221 222
196 198 195 192 190 190 190 189 191 193 192 191 192 192 192 193 195 197 200 203 203 206 207 200 207 208 202 205 205 199 197 201 205 208 207 197 192 193 194 201 198 193 191 189 190 191 192 193 190 190 192 191 192 194 193 193 194 196 198 199 200 201 215 224 221 222 226 231 235 237 239 243 258 255 237 230 235 235 236 229 225 224 221 221 222 223 223 222
194 193 191 189 188 189 189 188 189 191 190 189 190 190 191 193 194 196 199 201 203 205 208 207 210 210 205 208 206 197 194 200 203 201 200 199 198 199 201 203 198 193 191 189 191 193 193 194 194 195 194 188 190 194 190 188 191 197 197 196 202 204 212 226 225 225 228 234 237 238 235 223 245 250 242 240 236 233 237 233 230 228 226 224 223 225 224 224
191 190 189 188 187 188 189 188 188 188 189 187 188 188 190 192 193 195 198 200 201 201 203 206 209 211 211 209 202 197 196 195 199 198 195 198 201 200 201 201 196 193 191 191 193 194 194 196 197 197 195 190 191 192 188 187 190 195 196 195 205 205 207 222 228 228 230 235 237 242 242 231 241 249 246 246 238 233 237 236 235 231 229 228 224 226 226 225
190 189 188 186 185 187 188 188 187 187 187 184 184 186 187 189 191 193 195 196 195 194 197 201 202 205 211 209 199 198 197 193 199 198 193 198 201 200 200 197 195 193 192 192 193 193 194 197 198 198 198 195 194 194 193 192 190 191 193 194 203 207 209 219 229 232 231 235 237 243 248 244 246 252 252 248 236 233 237 237 237 234 233 232 228 227 227 227
188 187 185 183 183 184 186 186 185 185 184 181 180 182 183 184 186 189 192 195 194 192 193 196 199 199 205 205 196 194 195 193 201 200 195 199 200 199 197 194 195 196 194 192 191 192 194 194 194 198 199 197 195 197 199 198 197 200 202 206 214 215 216 219 227 233 232 235 239 243 251 251 249 252 254 250 237 231 236 236 237 238 235 234 232 229 228 227
186 185 182 181 182 183 185 184 184 184 181 180 179 178 179 179 180 185 190 195 198 197 196 198 199 197 200 200 191 189 191 194 202 201 198 200 198 196 193 190 193 196 197 194 192 194 193 193 196 199 200 199 195 195 199 203 207 211 212 213 218 219 218 222 228 234 236 239 245 247 251 252 248 248 251 251 243 234 235 238 238 240 239 235 232 230 228 227
184 183 180 180 181 182 183 183 182 181 180 181 181 180 181 181 182 185 186 190 197 199 199 198 197 194 196 195 190 188 191 195 199 198 198 198 196 194 191 189 190 193 195 193 196 196 193 197 201 201 201 201 198 193 196 202 205 211 215 215 217 218 217 227 231 234 239 239 244 248 248 250 248 246 246 246 245 238 235 237 237 240 240 235 232 229 229 229
183 181 180 179 180 181 182 181 179 179 180 181 181 182 182 184 186 187 185 185 189 193 195 194 192 192 191 189 190 190 192 197 198 196 196 196 193 192 192 191 191 194 191 190 196 196 195 200 204 203 201 200 201 196 195 202 206 208 214 214 214 217 218 229 234 232 236 236 240 248 249 250 251 248 244 242 245 243 238 236 236 239 239 237 233 229 229 230
182 180 179 178 179 180 179 179 179 179 180 181 181 181 182 185 187 187 185 183 182 187 191 190 191 190 188 188 191 191 192 197 200 197 195 194 192 192 193 192 191 195 195 193 195 193 195 201 205 206 202 200 202 201 200 204 209 210 212 210 210 219 221 226 234 231 232 232 235 246 251 252 251 248 244 242 244 245 242 240 238 238 239 238 236 232 231 229
181 179 177 177 178 179 179 179 179 180 181 181 181 181 182 185 185 183 183 181 179 186 190 190 191 190 190 192 191 192 193 196 200 200 196 195 193 193 196 194 191 195 198 198 196 194 198 201 204 205 202 202 203 205 206 206 209 211 209 208 209 220 221 218 228 230 230 234 236 246 258 258 252 249 246 243 243 245 245 244 241 238 237 239 239 235 232 228
181 178 176 176 177 178 179 180 181 181 181 180 181 182 182 182 182 181 181 178 177 185 190 191 191 189 192 194 190 192 194 194 198 201 198 195 194 195 196 194 193 198 200 197 195 201 208 208 206 205 203 205 204 206 208 203 207 213 211 209 209 216 218 216 221 224 225 236 239 240 254 265 255 250 248 244 242 243 243 244 243 240 238 236 238 238 235 231
180 177 175 175 177 178 180 182 182 181 180 180 181 181 181 180 180 179 176 170 175 185 187 187 187 188 191 191 188 189 192 195 197 200 200 196 195 197 197 196 195 199 200 196 195 205 212 211 209 206 204 204 204 207 208 202 200 213 213 211 209 212 212 213 217 216 214 231 239 232 227 254 267 253 249 245 243 243 242 244 244 242 240 238 236 238 237 235
180 176 174 176 177 180 183 183 182 181 180 179 179 179 179 178 178 175 168 158 182 189 185 183 184 187 189 187 186 186 189 194 194 197 202 197 195 196 199 201 199 200 200 195 197 206 209 209 210 208 206 207 205 206 209 203 198 210 211 207 206 206 205 209 211 210 217 226 238 232 223 240 261 250 248 246 245 246 242 242 244 243 243 242 239 238 238 237
179 176 175 177 178 182 186 184 183 182 179 178 178 177 177 177 175 172 164 137 188 187 185 184 184 185 186 184 184 187 190 193 191 194 200 199 196 195 198 202 202 203 203 199 201 208 208 207 211 210 208 209 207 208 209 203 202 211 209 206 206 207 210 211 206 208 219 224 233 229 217 234 253 241 246 250 246 248 246 241 242 243 242 243 243 241 239 238
179 177 176 178 180 182 185 186 185 181 177 177 175 174 175 174 171 170 170 190 179 180 184 185 185 185 184 183 184 188 190 192 193 193 196 198 197 194 197 202 203 203 203 201 204 211 212 208 211 212 211 212 210 212 210 204 207 211 210 209 207 208 209 200 197 203 211 221 230 223 212 223 259 241 239 248 245 245 249 245 241 241 241 241 241 241 241 240
179 177 177 180 182 183 184 184 183 179 177 175 172 172 171 166 167 170 188 198 176 177 182 184 187 185 183 184 184 187 189 192 194 193 193 197 198 196 198 201 202 203 203 202 205 211 213 209 209 210 211 213 213 213 212 208 210 213 212 205 192 187 189 185 186 185 196 230 224 218 214 218 258 245 225 239 245 242 246 249 246 243 242 241 240 240 240 240
180 178 179 183 183 183 184 181 178 178 176 173 171 170 164 161 170 177 193 182 175 177 181 185 188 185 184 186 184 186 190 192 193 193 192 193 196 197 198 197 197 199 203 205 206 211 211 208 209 209 209 211 211 211 210 209 210 208 200 187 171 156 164 178 185 188 209 229 203 210 219 217 231 235 220 239 247 242 243 248 247 245 244 243 242 240 239 239
181 180 181 184 184 183 182 178 177 177 175 172 171 168 163 161 180 197 183 174 178 180 181 186 188 185 186 188 187 188 190 191 192 195 195 192 194 197 198 197 193 189 195 202 203 206 210 210 209 208 208 208 207 205 202 202 205 201 185 176 171 155 164 187 185 195 224 218 189 203 208 216 234 240 237 238 240 240 242 245 245 245 244 243 242 241 239 239
181 182 182 183 184 181 178 177 178 177 174 172 169 168 167 167 191 198 179 174 186 186 184 186 188 186 186 187 190 190 190 193 192 194 197 195 195 198 198 200 197 191 188 192 192 189 196 212 211 207 206 206 204 201 196 193 193 191 181 178 182 173 173 200 191 198 225 212 206 202 198 229 246 248 246 242 242 243 243 243 242 242 243 242 243 242 241 240
182 184 183 183 182 179 176 177 179 178 174 172 169 168 172 184 195 189 180 180 186 186 186 186 184 185 187 189 192 190 188 191 192 194 198 197 196 197 198 200 200 196 186 185 190 187 184 207 211 207 206 203 200 200 202 201 195 189 184 186 193 193 190 200 196 198 168 146 187 189 192 229 235 243 246 242 245 243 239 239 237 237 238 239 241 243 243 243
184 184 184 182 180 177 177 178 179 178 176 173 170 172 182 195 191 186 187 187 180 181 185 186 184 183 186 192 194 194 192 189 190 194 197 199 200 200 200 200 200 197 189 184 190 193 191 201 206 205 207 205 201 202 205 203 197 193 191 193 200 206 204 195 180 191 147 117 184 194 212 229 225 239 245 239 243 237 231 233 231 231 233 237 242 245 244 243
184 184 184 183 180 177 178 177 178 178 177 175 173 180 192 195 191 190 192 190 183 181 180 179 184 183 182 191 194 195 198 196 193 194 196 201 205 206 206 205 203 201 197 192 190 191 189 195 203 201 201 202 201 202 202 199 197 198 196 198 203 207 208 201 176 192 182 205 214 202 226 239 236 246 244 235 240 236 231 232 231 233 237 241 245 245 242 239
185 183 182 183 180 178 179 177 177 178 179 179 179 187 194 195 193 192 193 191 186 183 178 174 182 186 184 190 194 194 197 197 196 196 198 200 205 209 209 208 209 206 204 204 200 198 195 191 198 199 199 201 201 201 201 201 202 199 198 203 206 207 213 214 199 155 200 235 223 205 229 238 226 235 239 232 235 236 235 235 236 240 241 240 239 236 234 231
185 183 182 181 180 179 179 177 178 179 179 182 187 192 196 197 197 196 196 193 187 185 182 177 181 188 189 190 194 195 195 195 196 195 198 201 205 211 210 209 210 208 208 209 208 207 202 192 190 197 198 200 200 200 201 203 206 205 203 207 207 204 210 209 202 191 208 228 239 214 226 233 223 221 228 231 232 234 236 237 238 242 241 236 231 228 226 223
185 183 181 180 180 179 179 177 178 180 181 186 192 197 200 199 199 201 200 197 191 187 187 186 186 188 192 193 195 195 195 197 197 195 197 201 205 212 212 209 209 207 208 210 211 212 209 199 185 194 197 197 197 199 200 203 206 207 209 210 208 209 206 201 208 219 218 224 236 213 206 237 241 237 233 234 235 236 239 242 243 243 241 236 230 226 224 221
187 184 181 180 180 179 178 178 178 180 184 191 195 199 202 201 201 202 200 198 197 193 192 195 194 191 193 195 197 197 196 199 201 199 201 204 205 210 212 211 211 209 206 208 211 213 211 206 195 192 196 197 199 200 201 205 206 205 208 209 208 210 207 204 215 219 220 230 238 227 218 242 250 246 237 234 236 237 241 248 250 247 240 235 231 228 225 222
187 184 180 179 179 179 178 177 179 184 189 194 197 199 203 203 201 201 199 198 199 199 198 200 200 198 197 197 200 200 199 201 204 204 206 208 208 211 213 212 212 210 206 206 209 211 210 209 202 192 193 198 205 207 205 208 209 209 210 210 210 210 205 201 216 217 218 226 232 241 260 246 227 231 233 232 234 235 236 243 247 244 239 235 231 228 227 225
186 183 179 179 179 179 178 179 182 188 192 195 198 201 203 202 202 202 200 198 200 202 203 203 204 205 203 201 202 203 203 204 206 207 211 214 214 215 216 215 213 212 210 208 209 210 210 208 202 195 197 202 207 210 209 210 213 214 214 214 215 213 209 207 216 219 216 221 232 252 287 256 246 253 255 241 235 234 233 236 239 238 238 236 232 228 227 226
185 183 180 179 179 179 179 180 184 189 193 196 198 201 203 202 202 202 200 198 201 204 205 205 205 207 208 207 205 203 205 207 209 211 214 217 218 218 219 219 215 212 212 212 210 209 209 207 199 190 197 206 210 214 214 213 214 216 218 219 218 217 215 213 219 231 208 211 222 227 251 252 253 260 259 247 238 235 233 234 236 239 238 234 232 230 229 230
184 183 180 178 178 179 180 183 187 190 194 197 198 199 201 201 201 203 201 199 200 203 206 207 207 207 209 211 209 208 206 207 211 214 216 218 220 220 220 221 217 213 213 214 213 211 208 206 196 175 166 205 213 220 220 217 217 218 220 222 220 220 219 216 221 235 230 225 223 214 240 256 258 262 258 248 237 232 232 234 236 240 239 235 233 233 232 235
179 178 178 177 178 180 184 189 192 193 194 197 198 199 200 198 199 202 203 202 202 204 206 209 209 209 211 211 212 212 209 208 211 213 216 219 221 221 221 219 218 216 215 215 218 217 211 208 204 191 171 185 202 215 221 219 219 219 222 223 222 223 223 222 225 229 236 242 231 221 239 253 258 261 256 246 238 231 230 234 236 236 236 236 236 236 236 238
172 170 173 177 179 183 187 191 194 195 196 197 197 198 199 197 196 199 203 204 204 205 207 209 211 210 211 212 212 212 211 211 213 214 216 219 220 221 220 219 217 216 215 214 216 217 213 213 215 212 211 217 223 228 229 226 222 222 226 228 226 226 227 226 225 225 232 240 236 236 243 248 252 257 254 244 246 242 231 231 234 233 232 234 237 239 241 242
172 173 177 178 180 186 191 193 194 196 198 198 197 197 197 197 195 195 199 202 204 205 207 209 212 211 211 212 212 214 214 214 214 216 217 219 221 222 221 220 218 215 214 213 213 214 214 215 220 222 224 229 233 236 238 235 233 233 235 235 232 229 227 224 224 229 234 234 239 245 247 246 248 251 251 251 252 249 238 233 234 235 234 237 240 240 242 242
176 180 185 183 182 188 193 194 196 198 199 199 199 199 197 197 196 195 197 201 203 205 206 207 211 214 214 214 212 213 214 213 214 216 217 218 219 221 221 221 220 218 216 213 212 214 217 220 224 227 230 232 233 237 241 242 244 244 243 242 239 235 230 227 229 236 234 230 241 250 249 250 252 252 253 257 255 248 243 237 232 233 235 239 243 243 244 244
179 183 188 188 188 191 193 195 197 198 198 198 199 200 198 198 199 199 200 201 202 204 206 208 210 212 215 216 215 215 215 212 212 214 216 217 218 218 219 218 219 220 218 216 215 216 219 225 228 228 232 234 234 236 240 243 246 247 246 247 247 243 239 237 241 246 241 238 246 252 251 253 257 256 255 257 253 244 239 235 230 233 240 245 247 247 247 248
180 184 189 191 193 193 193 195 196 194 194 197 198 199 199 199 200 200 201 203 203 204 207 210 211 211 213 214 215 218 220 219 218 218 217 217 218 218 219 218 219 220 218 217 217 216 219 224 228 229 231 234 234 234 237 240 244 246 247 248 247 247 246 245 247 249 244 242 246 249 249 253 258 258 256 256 254 247 238 235 238 243 247 248 247 244 242 244
181 186 192 194 196 195 193 195 195 192 193 198 199 199 199 198 201 202 201 204 207 206 206 210 211 210 211 213 214 217 220 223 226 226 223 223 224 224 224 224 224 223 219 217 216 216 218 220 222 224 225 230 234 233 233 237 242 245 245 244 244 243 243 242 243 244 242 243 245 244 247 252 256 256 256 256 257 254 246 241 243 247 246 244 240 235 237 247
182 186 191 194 197 197 196 196 197 197 201 203 202 202 200 199 202 204 201 202 207 209 209 210 210 210 210 211 213 216 218 221 225 227 227 229 230 230 230 229 230 229 225 222 217 217 219 221 222 220 220 230 235 233 232 235 240 242 240 240 240 240 240 241 243 245 244 245 245 244 246 252 255 256 258 259 259 260 258 254 252 247 241 236 233 233 242 255
Height
3012 3015 3018 3021 3023 3027 3032 3035 3039 3044 3048 3053 3057 3061 3065 3069 3072 3075 3077 3080 3083 3086 3090 3092 3096 3098 3099 3102 3104 3107 3109 3110 3112 3113 3114 3120 3125 3128 3130 3133 3137 3139 3141 3143 3145 3149 3151 3154 3156 3157 3158 3159 3161 3164 3166 3168 3170 3171 3173 3175 3177 3177 3178 3178 3179 3179 3179 3179 3180 3181 3182 3183 3184 3185 3186 3187 3187 3188 3189 3189 3189 3190 3190 3191 3191 3192 3193 3193
3009 3012 3015 3019 3021 3024 3029 3032 3037 3041 3045 3050 3055 3059 3064 3067 3071 3073 3076 3079 3082 3085 3088 3091 3094 3096 3098 3100 3103 3105 3107 3109 3110 3109 3114 3121 3124 3125 3129 3131 3135 3138 3139 3141 3145 3148 3150 3153 3155 3156 3157 3158 3161 3163 3165 3167 3169 3170 3173 3175 3176 3176 3176 3176 3177 3178 3178 3179 3180 3181 3182 3183 3184 3185 3185 3186 3187 3188 3188 3189 3189 3190 3190 3191 3192 3192 3193 3193
3006 3009 3012 3016 3018 3022 3026 3030 3034 3039 3043 3048 3052 3057 3062 3066 3069 3072 3075 3078 3080 3084 3087 3090 3092 3095 3097 3099 3102 3104 3106 3108 3106 3107 3115 3120 3121 3124 3127 3130 3134 3136 3138 3141 3143 3146 3149 3152 3153 3155 3156 3158 3160 3162 3164 3166 3168 3169 3172 3174 3175 3174 3175 3175 3176 3177 3178 3179 3179 3181 3181 3182 3183 3184 3185 3186 3187 3187 3188 3188 3189 3190 3190 3191 3191 3192 3193 3194
3003 3006 3010 3013 3016 3019 3024 3028 3032 3037 3041 3045 3050 3055 3060 3064 3067 3070 3073 3076 3079 3083 3086 3088 3091 3093 3095 3098 3101 3102 3105 3105 3102 3107 3116 3118 3119 3122 3125 3128 3132 3135 3137 3139 3141 3143 3146 3148 3150 3152 3154 3156 3158 3161 3163 3165 3167 3169 3171 3173 3173 3173 3174 3175 3176 3177 3178 3178 3179 3180 3181 3182 3183 3183 3184 3185 3187 3187 3188 3188 3188 3189 3189 3190 3191 3192 3193 3194
3000 3004 3007 3010 3013 3017 3021 3025 3030 3034 3038 3043 3047 3052 3058 3062 3066 3069 3072 3075 3078 3081 3084 3087 3089 3091 3094 3097 3100 3102 3104 3103 3101 3109 3115 3114 3116 3119 3123 3127 3130 3133 3135 3137 3139 3141 3143 3146 3148 3150 3152 3154 3157 3159 3161 3163 3166 3168 3170 3171 3171 3173 3173 3174 3175 3176 3177 3178 3179 3180 3181 3181 3182 3183 3184 3185 3187 3187 3186 3187 3187 3188 3189 3190 3191 3192 3193 3193
2997 3001 3004 3008 3011 3014 3018 3023 3028 3032 3036 3041 3045 3050 3055 3060 3064 3067 3070 3073 3076 3080 3082 3085 3087 3090 3093 3096 3098 3099 3101 3101 3103 3109 3111 3111 3114 3117 3121 3124 3127 3131 3133 3134 3137 3139 3142 3144 3146 3148 3150 3154 3156 3158 3160 3162 3165 3167 3169 3169 3171 3172 3173 3174 3175 3176 3177 3178 3178 3179 3180 3181 3182 3182 3183 3184 3185 3184 3185 3186 3187 3187 3189 3190 3190 3191 3192 3193
2994 2998 3002 3005 3009 3011 3016 3021 3026 3030 3034 3038 3043 3048 3053 3058 3062 3066 3069 3072 3074 3078 3081 3083 3085 3088 3091 3093 3094 3096 3098 3101 3104 3106 3107 3109 3112 3115 3118 3120 3124 3128 3130 3132 3134 3137 3140 3142 3144 3147 3150 3153 3155 3158 3161 3162 3165 3167 3168 3168 3170 3171 3172 3173 3174 3175 3176 3177 3178 3179 3180 3181 3181 3182 3182 3183 3183 3183 3184 3185 3186 3187 3188 3189 3190 3191 3192 3192
2991 2995 2999 3003 3006 3009 3013 3018 3023 3028 3032 3036 3041 3046 3051 3056 3060 3064 3067 3070 3073 3076 3077 3080 3083 3086 3090 3092 3093 3095 3097 3101 3103 3104 3105 3108 3111 3113 3115 3118 3123 3126 3128 3131 3133 3136 3139 3141 3144 3147 3150 3152 3155 3158 3160 3162 3164 3165 3166 3167 3169 3171 3172 3173 3174 3175 3176 3177 3178 3179 3180 3180 3181 3181 3182 3182 3182 3183 3184 3185 3185 3186 3187 3188 3189 3190 3191 3192
2987 2991 2996 3000 3003 3006 3011 3016 3021 3025 3029 3034 3039 3043 3049 3054 3058 3063 3066 3069 3071 3072 3074 3078 3082 3086 3089 3091 3093 3095 3097 3100 3101 3102 3104 3107 3111 3112 3113 3117 3122 3125 3127 3130 3133 3136 3138 3141 3144 3147 3150 3152 3154 3156 3158 3162 3163 3163 3165 3167 3169 3170 3171 3172 3173 3174 3175 3177 3178 3179 3179 3180 3181 3181 3181 3182 3182 3183 3184 3184 3185 3186 3187 3187 3188 3189 3190 3191
2984 2989 2993 2997 3000 3004 3008 3013 3018 3023 3027 3032 3036 3041 3047 3051 3056 3061 3064 3067 3069 3070 3074 3078 3082 3086 3088 3089 3092 3094 3098 3100 3100 3101 3104 3107 3110 3112 3113 3117 3122 3125 3127 3129 3131 3134 3137 3141 3144 3146 3149 3151 3153 3155 3158 3160 3161 3162 3164 3166 3168 3169 3171 3172 3173 3174 3175 3176 3177 3178 3179 3180 3180 3181 3181 3181 3182 3183 3183 3184 3184 3185 3186 3186 3187 3188 3188 3189
2981 2986 2990 2994 2997 3001 3005 3011 3016 3021 3025 3030 3034 3039 3044 3049 3055 3059 3062 3064 3067 3071 3075 3079 3082 3084 3086 3088 3092 3096 3099 3099 3099 3101 3103 3107 3110 3111 3113 3118 3123 3125 3126 3128 3130 3133 3137 3140 3143 3146 3149 3150 3152 3155 3156 3158 3160 3161 3164 3165 3167 3169 3170 3171 3172 3173 3174 3175 3176 3177 3178 3179 3179 3180 3180 3181 3182 3182 3182 3183 3184 3184 3185 3185 3186 3187 3187 3188
2979 2984 2987 2991 2994 2998 3004 3009 3014 3019 3024 3028 3032 3037 3042 3048 3053 3057 3061 3063 3067 3072 3074 3077 3080 3083 3085 3088 3092 3096 3098 3098 3098 3100 3103 3107 3109 3110 3113 3118 3122 3124 3125 3128 3131 3135 3138 3140 3142 3145 3148 3149 3152 3154 3155 3157 3159 3161 3163 3164 3166 3168 3169 3170 3171 3172 3173 3174 3176 3177 3178 3178 3178 3179 3180 3180 3181 3181 3182 3182 3183 3183 3184 3185 3185 3186 3187 3187
2976 2981 2985 2988 2992 2997 3002 3007 3012 3017 3022 3026 3031 3035 3041 3047 3052 3056 3060 3062 3067 3071 3072 3075 3078 3081 3084 3087 3091 3095 3097 3098 3099 3100 3103 3106 3109 3110 3112 3117 3121 3123 3125 3127 3131 3134 3137 3140 3142 3144 3146 3149 3151 3152 3153 3156 3158 3160 3162 3163 3165 3167 3168 3169 3170 3171 3172 3174 3175 3177 3178 3177 3177 3178 3179 3180 3180 3181 3181 3182 3182 3183 3183 3184 3184 3185 3186 3187
2974 2979 2982 2986 2990 2995 3000 3005 3010 3015 3019 3024 3029 3034 3039 3045 3051 3055 3059 3062 3066 3070 3071 3074 3077 3080 3083 3087 3090 3093 3096 3098 3099 3101 3103 3105 3108 3110 3112 3116 3120 3122 3124 3127 3130 3133 3136 3139 3140 3142 3145 3146 3148 3150 3152 3155 3158 3159 3160 3162 3164 3165 3166 3167 3169 3170 3171 3172 3174 3176 3177 3177 3177 3177 3178 3179 3179 3180 3180 3181 3181 3182 3182 3183 3183 3184 3185 3186
2972 2976 2980 2984 2989 2994 2999 3004 3009 3013 3018 3022 3027 3032 3038 3044 3050 3054 3058 3061 3065 3068 3070 3073 3076 3079 3083 3086 3088 3092 3095 3097 3099 3102 3103 3105 3108 3110 3112 3116 3119 3121 3124 3126 3129 3132 3134 3137 3138 3140 3142 3144 3146 3149 3151 3153 3155 3157 3158 3160 3161 3163 3164 3165 3167 3169 3170 3171 3173 3175 3176 3177 3176 3175 3177 3178 3178 3179 3179 3180 3181 3181 3182 3182 3183 3184 3184 3185
2970 2974 2978 2982 2987 2992 2998 3003 3007 3011 3016 3020 3025 3031 3037 3043 3048 3053 3057 3060 3064 3067 3070 3073 3075 3079 3082 3083 3086 3089 3092 3096 3099 3102 3104 3106 3108 3111 3114 3116 3119 3121 3123 3126 3129 3131 3132 3135 3137 3138 3140 3142 3144 3147 3149 3151 3153 3153 3155 3157 3158 3161 3163 3163 3165 3167 3168 3170 3171 3173 3174 3175 3174 3174 3176 3177 3177 3178 3178 3179 3179 3180 3181 3181 3182 3183 3183 3184
2967 2972 2976 2981 2986 2991 2997 3001 3005 3009 3014 3018 3024 3029 3036 3042 3047 3052 3056 3060 3062 3065 3069 3073 3076 3079 3080 3081 3084 3087 3090 3094 3098 3101 3104 3106 3109 3111 3114 3116 3118 3120 3122 3125 3127 3129 3131 3133 3134 3136 3139 3141 3142 3145 3146 3146 3147 3149 3153 3155 3156 3159 3161 3162 3163 3165 3167 3168 3170 3171 3171 3173 3173 3173 3174 3176 3176 3176 3177 3178 3178 3179 3180 3180 3181 3182 3183 3183
2965 2970 2974 2980 2985 2990 2995 2999 3003 3008 3012 3017 3022 3028 3034 3040 3046 3051 3054 3058 3061 3064 3068 3072 3075 3077 3076 3077 3081 3085 3090 3094 3097 3100 3103 3106 3108 3111 3113 3115 3117 3119 3121 3124 3125 3127 3129 3131 3134 3136 3137 3138 3140 3141 3140 3140 3142 3145 3150 3153 3154 3157 3160 3161 3161 3163 3165 3166 3168 3169 3169 3171 3172 3172 3173 3174 3174 3175 3175 3176 3177 3178 3178 3179 3180 3181 3182 3183
2964 2968 2973 2979 2984 2989 2994 2998 3002 3006 3011 3016 3020 3026 3033 3039 3045 3051 3053 3055 3057 3059 3062 3063 3065 3068 3070 3074 3080 3085 3090 3093 3096 3099 3102 3105 3107 3109 3112 3114 3116 3118 3120 3121 3123 3125 3126 3129 3131 3132 3132 3133 3135 3137 3139 3141 3143 3145 3149 3152 3153 3155 3157 3158 3159 3160 3163 3165 3166 3167 3167 3168 3171 3171 3171 3172 3172 3173 3174 3175 3176 3176 3177 3178 3179 3180 3181 3182
2962 2967 2972 2977 2983 2988 2993 2997 3002 3006 3010 3014 3017 3022 3028 3034 3041 3047 3050 3054 3055 3056 3057 3058 3062 3067 3071 3075 3080 3084 3088 3092 3094 3097 3101 3103 3106 3108 3110 3112 3115 3117 3118 3120 3121 3123 3125 3127 3126 3127 3129 3131 3134 3138 3141 3143 3144 3146 3149 3151 3152 3154 3155 3155 3157 3160 3162 3164 3164 3165 3165 3166 3168 3169 3170 3170 3170 3171 3172 3173 3174 3175 3176 3177 3178 3179 3179 3180
2961 2966 2971 2976 2982 2987 2992 2997 3001 3005 3009 3013 3016 3019 3023 3027 3031 3033 3039 3046 3052 3056 3058 3061 3066 3071 3074 3077 3081 3084 3087 3090 3093 3096 3099 3102 3104 3106 3108 3110 3112 3114 3116 3119 3120 3122 3124 3125 3125 3127 3130 3132 3135 3137 3140 3142 3143 3145 3148 3150 3151 3153 3154 3154 3157 3159 3161 3162 3163 3163 3163 3163 3165 3166 3168 3168 3168 3169 3171 3172 3173 3173 3174 3175 3176 3177 3178 3178
2960 2965 2970 2975 2980 2986 2991 2996 3000 3004 3008 3012 3016 3019 3024 3027 3027 3029 3033 3039 3046 3053 3058 3062 3067 3071 3074 3078 3080 3084 3086 3089 3092 3095 3097 3100 3102 3104 3107 3108 3111 3113 3115 3117 3118 3120 3122 3123 3125 3128 3129 3131 3134 3136 3138 3140 3142 3144 3146 3149 3150 3151 3152 3153 3156 3158 3159 3161 3161 3160 3161 3161 3162 3164 3165 3165 3165 3167 3169 3170 3171 3172 3172 3173 3174 3175 3176 3177
2959 2964 2969 2974 2980 2986 2991 2996 2999 3002 3006 3010 3014 3018 3023 3026 3030 3035 3039 3041 3047 3053 3058 3062 3066 3069 3073 3076 3078 3082 3085 3088 3091 3093 3096 3098 3100 3103 3105 3107 3110 3112 3114 3115 3116 3119 3120 3122 3124 3126 3128 3130 3133 3135 3138 3139 3141 3142 3144 3147 3148 3148 3151 3153 3154 3156 3158 3159 3159 3159 3159 3159 3160 3161 3162 3163 3163 3164 3166 3167 3169 3170 3170 3171 3172 3173 3174 3175
2958 2963 2968 2973 2980 2985 2990 2994 2998 3001 3005 3009 3014 3018 3022 3026 3032 3038 3043 3047 3051 3055 3059 3063 3065 3069 3072 3074 3077 3080 3083 3086 3090 3092 3095 3097 3099 3102 3104 3106 3109 3111 3112 3114 3117 3119 3119 3121 3122 3125 3127 3130 3132 3134 3136 3138 3140 3141 3143 3145 3146 3147 3149 3152 3153 3155 3156 3157 3157 3158 3159 3157 3157 3159 3160 3160 3161 3162 3163 3165 3166 3167 3168 3169 3170 3171 3172 3172
2957 2962 2967 2973 2979 2984 2989 2993 2996 3000 3005 3009 3014 3018 3023 3028 3034 3038 3042 3048 3053 3056 3060 3063 3066 3069 3072 3074 3076 3079 3082 3085 3088 3091 3094 3096 3098 3101 3103 3106 3108 3109 3111 3114 3118 3119 3119 3120 3122 3125 3127 3129 3131 3133 3135 3138 3139 3140 3141 3143 3144 3146 3148 3150 3152 3154 3156 3156 3156 3158 3159 3155 3154 3156 3157 3158 3159 3160 3161 3162 3163 3164 3165 3167 3167 3168 3169 3170
2956 2961 2966 2972 2977 2982 2986 2990 2994 2999 3004 3009 3013 3018 3023 3029 3034 3038 3044 3050 3053 3055 3057 3060 3064 3068 3070 3073 3075 3078 3082 3084 3087 3091 3093 3094 3097 3100 3102 3104 3107 3109 3111 3114 3117 3117 3117 3119 3122 3124 3126 3127 3129 3132 3133 3136 3139 3139 3140 3142 3144 3145 3147 3149 3151 3153 3155 3154 3154 3157 3158 3155 3153 3153 3154 3155 3156 3157 3158 3159 3160 3162 3163 3164 3165 3165 3167 3168
2955 2961 2966 2970 2975 2980 2983 2987 2993 2997 3002 3008 3014 3019 3024 3029 3034 3039 3046 3052 3053 3053 3056 3058 3061 3065 3068 3071 3073 3076 3079 3081 3085 3089 3091 3093 3096 3098 3101 3103 3105 3107 3109 3112 3114 3114 3115 3118 3120 3122 3124 3126 3128 3130 3132 3135 3138 3138 3139 3141 3143 3144 3146 3148 3150 3152 3153 3153 3154 3155 3156 3155 3153 3152 3151 3152 3154 3154 3155 3157 3157 3158 3160 3161 3162 3163 3164 3165
2955 2960 2965 2970 2975 2979 2984 2988 2992 2996 3002 3008 3013 3019 3024 3030 3035 3040 3045 3050 3050 3050 3053 3057 3059 3063 3067 3070 3072 3074 3077 3080 3083 3086 3089 3093 3095 3097 3100 3102 3103 3106 3108 3111 3111 3112 3114 3116 3119 3121 3123 3124 3126 3128 3130 3134 3136 3137 3138 3140 3142 3144 3145 3147 3149 3151 3151 3153 3153 3153 3155 3155 3151 3150 3150 3150 3151 3152 3152 3154 3155 3156 3157 3158 3159 3160 3161 3162
2954 2959 2964 2969 2973 2978 2984 2989 2993 2998 3003 3008 3014 3019 3025 3031 3036 3041 3045 3046 3045 3046 3051 3055 3058 3062 3065 3068 3070 3073 3076 3079 3081 3084 3088 3091 3093 3096 3098 3100 3102 3104 3107 3109 3110 3111 3113 3116 3118 3120 3122 3123 3125 3127 3130 3133 3134 3136 3138 3140 3142 3143 3145 3147 3148 3149 3151 3152 3151 3150 3152 3153 3149 3148 3148 3148 3149 3149 3150 3151 3153 3153 3154 3155 3156 3157 3158 3159
2953 2958 2963 2967 2970 2976 2982 2989 2996 3002 3005 3010 3015 3020 3026 3032 3036 3040 3043 3041 3041 3045 3048 3052 3056 3059 3062 3065 3068 3071 3074 3077 3080 3083 3086 3089 3092 3095 3096 3098 3101 3104 3106 3108 3109 3111 3112 3115 3117 3119 3120 3121 3123 3126 3129 3131 3133 3135 3138 3139 3141 3143 3144 3146 3147 3149 3151 3150 3148 3148 3150 3152 3149 3146 3146 3146 3146 3147 3147 3148 3150 3151 3152 3153 3153 3154 3155 3156
2952 2957 2962 2966 2970 2976 2982 2988 2995 3001 3006 3011 3016 3021 3027 3032 3035 3036 3037 3036 3038 3042 3045 3050 3054 3057 3060 3062 3064 3068 3071 3075 3078 3080 3083 3086 3090 3092 3094 3097 3100 3103 3106 3107 3108 3110 3112 3113 3114 3116 3117 3119 3122 3125 3127 3130 3131 3134 3137 3138 3141 3143 3145 3147 3148 3149 3149 3146 3145 3146 3148 3151 3148 3144 3143 3143 3144 3145 3145 3146 3147 3148 3149 3150 3151 3152 3153 3154
2952 2956 2961 2966 2971 2977 2983 2989 2994 2999 3004 3010 3016 3021 3025 3030 3033 3031 3031 3033 3036 3038 3041 3046 3051 3054 3058 3061 3063 3066 3069 3072 3076 3078 3080 3083 3086 3088 3091 3093 3096 3099 3102 3104 3106 3108 3110 3111 3112 3114 3115 3117 3120 3123 3125 3128 3130 3133 3135 3137 3140 3142 3145 3146 3146 3146 3145 3143 3144 3145 3147 3147 3143 3140 3141 3142 3142 3143 3143 3144 3145 3145 3146 3147 3148 3149 3151 3152
2951 2956 2960 2966 2972 2978 2985 2991 2994 2999 3004 3009 3015 3019 3023 3026 3025 3024 3026 3029 3031 3034 3038 3043 3048 3052 3056 3059 3061 3064 3068 3071 3074 3077 3079 3081 3084 3086 3089 3091 3093 3096 3099 3101 3104 3106 3109 3110 3111 3112 3114 3116 3119 3121 3123 3125 3127 3131 3133 3135 3137 3139 3142 3143 3142 3142 3142 3142 3142 3144 3146 3144 3139 3137 3139 3139 3140 3141 3141 3142 3142 3143 3144 3145 3146 3147 3148 3149
2950 2955 2960 2965 2972 2979 2985 2989 2994 2999 3004 3009 3014 3018 3021 3021 3019 3020 3024 3026 3028 3032 3036 3041 3046 3051 3055 3057 3059 3062 3066 3069 3072 3075 3077 3080 3082 3084 3086 3089 3092 3094 3097 3099 3101 3104 3106 3108 3109 3111 3113 3115 3118 3119 3121 3123 3126 3129 3131 3133 3134 3135 3137 3138 3137 3138 3139 3139 3141 3144 3144 3139 3135 3135 3136 3137 3137 3138 3140 3140 3140 3141 3142 3142 3143 3144 3145 3147
2949 2954 2960 2965 2971 2977 2983 2987 2993 2999 3004 3008 3013 3015 3015 3013 3014 3017 3019 3021 3025 3029 3035 3041 3045 3049 3053 3056 3059 3062 3064 3066 3070 3073 3075 3078 3079 3081 3083 3086 3089 3092 3094 3096 3098 3101 3104 3105 3106 3109 3112 3114 3117 3118 3121 3124 3126 3128 3129 3131 3132 3132 3133 3134 3134 3135 3136 3138 3139 3139 3137 3134 3133 3134 3134 3135 3134 3135 3137 3138 3138 3139 3140 3141 3142 3142 3144 3145
2947 2953 2959 2964 2970 2976 2981 2986 2992 2998 3003 3006 3010 3010 3008 3007 3010 3013 3014 3017 3021 3024 3031 3039 3044 3047 3050 3054 3057 3060 3062 3065 3068 3071 3074 3076 3078 3079 3082 3084 3086 3089 3091 3094 3096 3098 3102 3103 3104 3107 3110 3112 3114 3116 3119 3122 3123 3125 3127 3128 3129 3130 3131 3133 3135 3135 3136 3137 3135 3133 3132 3131 3132 3133 3132 3133 3132 3133 3135 3135 3137 3138 3138 3139 3140 3141 3142 3143
2944 2950 2956 2963 2969 2974 2979 2984 2990 2996 3001 3005 3005 3003 3003 3006 3009 3011 3013 3016 3020 3024 3028 3033 3038 3042 3046 3049 3053 3056 3060 3063 3066 3069 3071 3074 3075 3076 3079 3082 3084 3087 3090 3092 3094 3096 3099 3102 3103 3106 3108 3110 3113 3115 3117 3119 3121 3123 3124 3125 3127 3130 3131 3132 3134 3135 3136 3135 3131 3130 3130 3130 3131 3131 3130 3130 3131 3131 3132 3133 3135 3135 3136 3138 3139 3140 3141 3142
2943 2949 2955 2961 2967 2973 2978 2984 2989 2994 2999 3002 3001 3000 3001 3005 3008 3009 3012 3016 3021 3025 3028 3029 3033 3038 3042 3045 3048 3052 3056 3059 3062 3065 3067 3070 3072 3073 3075 3079 3082 3086 3089 3091 3093 3095 3097 3100 3103 3104 3106 3109 3111 3114 3116 3118 3119 3121 3122 3124 3127 3129 3130 3131 3133 3134 3134 3133 3130 3128 3128 3128 3128 3128 3128 3128 3129 3130 3131 3132 3133 3133 3134 3136 3137 3138 3139 3140
2942 2948 2954 2960 2966 2971 2976 2982 2987 2993 2997 2997 2996 2998 3000 3003 3006 3009 3013 3017 3021 3025 3027 3029 3031 3036 3040 3042 3045 3049 3053 3056 3058 3061 3064 3066 3069 3070 3073 3076 3079 3083 3087 3090 3092 3094 3096 3098 3101 3103 3104 3107 3109 3111 3113 3114 3116 3119 3121 3123 3125 3126 3127 3128 3129 3130 3130 3130 3129 3127 3127 3125 3124 3126 3127 3128 3129 3130 3130 3130 3131 3132 3133 3134 3135 3136 3137 3138
2941 2946 2952 2959 2964 2969 2975 2981 2986 2990 2991 2991 2992 2995 2997 3001 3005 3008 3012 3017 3021 3023 3026 3028 3030 3033 3037 3041 3044 3047 3051 3053 3056 3059 3061 3063 3066 3068 3070 3073 3077 3080 3085 3088 3090 3093 3095 3097 3099 3101 3104 3106 3107 3108 3109 3111 3113 3116 3118 3119 3121 3123 3125 3126 3126 3127 3127 3127 3125 3125 3125 3122 3121 3123 3125 3126 3128 3128 3128 3129 3130 3131 3132 3133 3134 3135 3136 3137
2940 2945 2951 2957 2962 2967 2973 2978 2983 2985 2986 2988 2991 2993 2995 2999 3004 3007 3011 3015 3019 3022 3024 3027 3029 3032 3035 3038 3042 3045 3049 3052 3054 3058 3059 3061 3064 3066 3068 3071 3074 3078 3082 3085 3087 3091 3093 3095 3097 3099 3102 3103 3104 3106 3108 3110 3112 3113 3115 3116 3118 3120 3122 3124 3124 3124 3125 3125 3123 3123 3123 3120 3120 3122 3123 3125 3126 3126 3127 3128 3129 3130 3130 3131 3133 3134 3135 3136
2938 2944 2949 2955 2960 2965 2970 2975 2979 2982 2983 2985 2988 2990 2994 2999 3003 3006 3010 3014 3017 3020 3023 3026 3029 3031 3034 3036 3040 3044 3047 3049 3052 3055 3057 3059 3062 3064 3067 3070 3073 3076 3080 3083 3085 3088 3091 3094 3096 3098 3100 3101 3103 3104 3106 3108 3110 3112 3113 3114 3116 3118 3120 3121 3121 3120 3122 3123 3123 3124 3123 3120 3119 3121 3122 3124 3124 3125 3126 3127 3127 3128 3129 3130 3132 3133 3134 3135
2937 2943 2948 2953 2958 2963 2968 2972 2975 2978 2980 2982 2986 2989 2993 2998 3001 3005 3009 3012 3015 3018 3021 3024 3027 3030 3033 3035 3038 3042 3045 3048 3050 3053 3055 3058 3061 3064 3067 3069 3072 3075 3079 3081 3084 3087 3090 3092 3094 3097 3099 3100 3101 3103 3105 3107 3108 3110 3110 3112 3114 3115 3116 3118 3119 3119 3120 3120 3122 3124 3122 3117 3118 3120 3121 3122 3124 3125 3125 3126 3126 3126 3127 3129 3131 3132 3133 3134
2936 2942 2947 2952 2957 2961 2964 2966 2968 2971 2975 2979 2984 2988 2992 2996 3000 3003 3006 3010 3013 3016 3019 3022 3025 3028 3030 3034 3037 3039 3043 3046 3049 3052 3054 3057 3060 3063 3066 3068 3071 3073 3076 3078 3081 3084 3087 3089 3091 3095 3099 3101 3102 3103 3103 3104 3105 3105 3106 3108 3110 3112 3114 3116 3117 3118 3118 3118 3119 3121 3118 3115 3116 3118 3119 3121 3122 3123 3124 3125 3125 3125 3126 3127 3128 3130 3131 3132
2935 2941 2946 2951 2955 2958 2961 2963 2965 2968 2971 2976 2981 2985 2990 2994 2998 3001 3005 3008 3011 3014 3017 3020 3023 3026 3029 3032 3036 3038 3041 3044 3046 3049 3052 3055 3058 3061 3064 3067 3070 3072 3074 3077 3079 3082 3084 3086 3087 3091 3094 3096 3097 3097 3097 3098 3100 3102 3103 3105 3107 3110 3112 3114 3116 3117 3116 3115 3116 3116 3114 3113 3115 3115 3116 3118 3120 3121 3122 3123 3123 3123 3124 3125 3126 3127 3129 3130
2931 2936 2942 2949 2955 2957 2958 2961 2964 2967 2969 2973 2979 2984 2988 2992 2996 3000 3003 3006 3009 3012 3015 3018 3021 3025 3028 3031 3034 3037 3039 3042 3044 3046 3049 3052 3055 3058 3062 3065 3068 3070 3072 3075 3078 3080 3082 3083 3084 3086 3087 3089 3090 3091 3093 3095 3097 3099 3100 3102 3104 3106 3108 3111 3114 3113 3113 3113 3112 3111 3112 3112 3112 3112 3114 3116 3118 3120 3121 3121 3121 3121 3122 3123 3124 3125 3127 3128
2930 2932 2934 2941 2949 2954 2956 2959 2962 2965 2967 2972 2976 2980 2985 2989 2993 2998 3001 3004 3007 3010 3014 3016 3019 3022 3025 3028 3031 3034 3037 3039 3041 3043 3046 3049 3052 3056 3060 3063 3065 3068 3071 3073 3075 3078 3079 3080 3082 3084 3085 3087 3089 3090 3092 3093 3094 3096 3097 3099 3101 3103 3105 3108 3108 3108 3110 3111 3108 3107 3109 3109 3109 3110 3112 3114 3116 3118 3119 3119 3120 3120 3121 3122 3123 3124 3125 3126
2927 2930 2932 2935 2938 2942 2946 2951 2957 2961 2966 2972 2976 2978 2982 2986 2991 2994 2998 3001 3005 3008 3011 3014 3016 3019 3022 3025 3028 3031 3034 3036 3038 3041 3043 3046 3049 3052 3056 3060 3063 3066 3069 3071 3073 3075 3077 3077 3079 3082 3083 3085 3087 3089 3090 3091 3093 3094 3095 3096 3098 3100 3101 3103 3103 3104 3107 3107 3104 3104 3106 3105 3106 3109 3111 3111 3114 3116 3116 3118 3118 3119 3120 3121 3122 3123 3123 3124
2924 2928 2932 2936 2936 2937 2941 2948 2953 2958 2964 2970 2974 2976 2980 2983 2988 2991 2995 2998 3002 3005 3009 3011 3013 3017 3020 3023 3027 3028 3030 3032 3033 3036 3039 3042 3045 3048 3052 3055 3059 3062 3066 3068 3070 3073 3074 3075 3077 3080 3081 3083 3085 3087 3088 3090 3090 3091 3093 3094 3096 3097 3098 3100 3101 3102 3103 3102 3101 3102 3102 3101 3103 3107 3108 3109 3111 3113 3114 3115 3116 3117 3118 3119 3120 3120 3121 3122
2923 2926 2930 2934 2936 2939 2944 2950 2954 2959 2965 2969 2971 2973 2977 2982 2985 2988 2992 2995 2998 3002 3005 3008 3011 3015 3018 3022 3025 3026 3028 3029 3030 3032 3036 3039 3042 3045 3048 3051 3054 3058 3061 3064 3067 3069 3071 3073 3075 3077 3079 3080 3081 3084 3085 3087 3088 3088 3089 3091 3093 3094 3096 3097 3097 3098 3098 3097 3098 3100 3099 3097 3100 3104 3105 3106 3108 3110 3112 3113 3114 3115 3115 3116 3117 3118 3118 3120
2922 2925 2928 2932 2935 2939 2944 2948 2953 2958 2962 2964 2966 2970 2975 2979 2982 2986 2990 2993 2996 2999 3002 3005 3009 3014 3017 3020 3022 3024 3027 3030 3031 3033 3036 3038 3040 3043 3046 3049 3052 3055 3057 3061 3064 3066 3069 3071 3072 3076 3077 3076 3078 3081 3082 3083 3085 3084 3085 3087 3088 3089 3090 3090 3090 3091 3093 3093 3095 3097 3095 3093 3095 3099 3101 3103 3105 3107 3108 3110 3111 3111 3112 3112 3113 3114 3115 3116
2921 2923 2927 2930 2933 2937 2942 2946 2951 2955 2956 2958 2962 2967 2972 2977 2980 2984 2988 2991 2994 2998 3001 3004 3008 3012 3015 3017 3020 3023 3026 3028 3030 3033 3036 3038 3040 3043 3045 3047 3050 3052 3055 3058 3061 3063 3066 3068 3070 3073 3073 3073 3074 3077 3078 3081 3081 3078 3078 3081 3083 3083 3083 3084 3084 3087 3089 3091 3091 3091 3089 3090 3092 3095 3097 3099 3101 3103 3104 3106 3107 3108 3108 3109 3109 3110 3111 3113